�N����,�����b,�ŏ������i�x�j,���ϕ����i�x�j,�ő啗���i�x�j,�ŏ�����(m/s),���ϕ���(m/s),�ő啗��(m/s),�C��(���j,���x�i���j,�C��(hPa),�~�J��(mm),�~�J����(�b�j,�~�J���x(mm/h),�ő�~�J���x(mm/h),�~�Ђ傤��(hit/���u),�~�Ђ傤����(�b�j,�~�Ђ傤���x(hit/���uh),�ő�~�Ђ傤���x(hit/���uh),�q�[�^���x(���j,�q�[�^�[�d���iV),�d���d���iV),�Q�Ɠd���iV)
2013/05/01,09:20:01,339,343,349,7.3,8.0,8.8,20.0,69.3,1002.1,13.85,9450,0.0,////,0.0,0,0.0,////,19.4,0.0,12.3,3.523
2013/05/01,09:30:01,351,004,016,4.2,4.8,5.5,20.0,68.5,1002.4,0.00,10,0.0,////,0.0,0,0.0,////,19.3,0.0,12.3,3.513
2013/05/01,09:40:01,338,345,351,5.5,6.0,6.5,20.1,67.9,1002.5,0.02,70,0.8,////,0.0,0,0.0,////,19.4,0.0,12.3,3.514
2013/05/01,09:50:01,356,004,009,5.0,5.7,6.3,19.9,68.5,1002.4,0.01,70,0.0,////,0.0,0,0.0,////,19.1,0.0,12.3,3.513
2013/05/01,10:00:01,347,358,010,4.4,5.0,5.6,20.0,67.0,1002.4,0.00,70,0.0,////,0.0,0,0.0,////,19.4,0.0,12.3,3.513
2013/05/01,10:10:01,356,011,021,4.3,4.5,4.7,19.9,67.8,1002.4,0.00,40,0.0,////,0.0,0,0.0,////,19.6,0.0,12.3,3.511
2013/05/01,10:20:01,345,355,004,4.4,5.0,5.6,20.0,66.8,1002.4,0.00,0,0.0,////,0.0,0,0.0,////,19.8,0.0,12.3,3.511
2013/05/01,10:30:01,337,345,352,4.2,4.6,5.0,20.1,68.0,1002.4,0.00,30,0.0,////,0.0,0,0.0,////,19.8,0.0,12.3,3.514
2013/05/01,10:40:01,015,016,019,2.3,2.7,3.1,20.1,63.0,1002.1,0.00,0,0.0,////,0.0,0,0.0,////,20.3,0.0,12.3,3.513
2013/05/01,10:50:01,348,351,356,3.5,4.5,5.3,20.1,59.5,1001.9,0.00,0,0.0,////,0.0,0,0.0,////,20.1,0.0,12.3,3.511
2013/05/01,11:00:01,347,357,014,3.6,4.0,4.4,20.2,59.8,1001.7,0.00,0,0.0,////,0.0,0,0.0,////,20.5,0.0,12.2,3.511
2013/05/01,11:10:01,007,010,015,4.4,5.0,5.7,20.5,60.8,1001.7,0.00,0,0.0,////,0.0,0,0.0,////,21.2,0.0,12.3,3.513
2013/05/01,11:20:01,333,338,347,5.4,5.9,6.2,20.2,58.6,1001.6,0.00,0,0.0,////,0.0,0,0.0,////,20.6,0.0,12.3,3.513
2013/05/01,11:30:01,347,353,000,4.7,5.5,6.2,20.1,60.5,1001.5,0.00,0,0.0,////,0.0,0,0.0,////,20.3,0.0,12.3,3.513
2013/05/01,11:40:01,336,345,354,5.3,6.3,6.9,20.0,59.3,1001.6,0.01,100,0.0,////,0.0,0,0.0,////,20.1,0.0,12.3,3.513
2013/05/01,11:50:01,347,357,009,4.6,4.9,5.4,19.8,63.7,1001.6,0.03,370,0.0,////,0.0,0,0.0,////,19.1,0.0,12.3,3.513
2013/05/01,12:00:01,349,353,356,6.6,7.1,7.8,19.5,61.4,1001.6,0.00,30,0.0,////,0.0,0,0.0,////,19.1,0.0,12.3,3.513
2013/05/01,12:10:01,010,015,023,4.7,5.5,6.4,19.6,61.3,1001.7,0.01,120,0.2,////,0.0,0,0.0,////,19.3,0.0,12.3,3.523
2013/05/01,12:20:01,338,341,346,4.2,5.5,6.9,19.7,61.6,1001.7,0.02,220,0.0,////,0.0,0,0.0,////,19.4,0.0,12.3,3.513
2013/05/01,12:30:01,340,343,345,5.9,6.2,6.4,19.8,60.2,1001.6,0.00,40,0.0,////,0.0,0,0.0,////,20.0,0.0,12.3,3.514
2013/05/01,12:40:01,335,340,343,5.9,6.3,6.8,20.3,60.2,1001.7,0.00,0,0.0,////,0.0,0,0.0,////,21.2,0.0,12.2,3.514
2013/05/01,12:50:01,325,336,342,3.8,4.3,4.8,20.2,59.2,1001.8,0.00,0,0.0,////,0.0,0,0.0,////,21.2,0.0,12.3,3.513
2013/05/01,13:00:01,343,345,347,4.8,5.3,5.7,19.9,57.7,1001.9,0.00,0,0.0,////,0.0,0,0.0,////,20.1,0.0,12.3,3.513
2013/05/01,13:10:01,350,352,354,4.5,4.7,4.8,19.7,57.5,1001.8,0.00,10,0.0,////,0.0,0,0.0,////,19.6,0.0,12.3,3.513
2013/05/01,13:20:01,342,346,349,3.6,3.9,4.1,19.5,57.5,1001.6,0.04,230,0.0,////,0.0,0,0.0,////,18.9,0.0,12.3,3.513
2013/05/01,13:30:01,358,359,000,5.5,5.8,6.1,19.5,54.7,1001.6,0.00,40,0.0,////,0.0,0,0.0,////,18.9,0.0,12.3,3.513
2013/05/01,13:40:01,001,007,016,4.5,5.0,5.5,19.7,56.5,1001.6,0.00,0,0.0,////,0.0,0,0.0,////,19.3,0.0,12.3,3.513
2013/05/01,13:50:01,344,349,355,3.6,4.8,6.0,19.6,54.8,1001.7,0.00,0,0.0,////,0.0,0,0.0,////,19.3,0.0,12.3,3.513
2013/05/01,14:00:01,345,350,355,6.4,6.7,6.9,19.6,55.4,1001.6,0.00,0,0.0,////,0.0,0,0.0,////,19.3,0.0,12.3,3.513
2013/05/01,14:10:01,356,002,006,3.1,3.8,5.0,19.5,54.4,1001.7,0.00,0,0.0,////,0.0,0,0.0,////,18.9,0.0,12.3,3.513
2013/05/01,14:20:01,343,345,347,3.5,3.8,4.1,19.6,52.8,1001.7,0.00,0,0.0,////,0.0,0,0.0,////,19.3,0.0,12.3,3.513
2013/05/01,14:30:01,339,342,348,4.5,4.9,5.2,19.6,54.3,1001.5,0.00,0,0.0,////,0.0,0,0.0,////,19.6,0.0,12.3,3.513
2013/05/01,14:40:01,339,345,353,4.3,4.8,5.2,19.7,52.8,1001.3,0.00,0,0.0,////,0.0,0,0.0,////,20.0,0.0,12.3,3.511
2013/05/01,14:50:01,354,359,002,4.1,4.6,5.0,19.6,53.7,1001.2,0.00,0,0.0,////,0.0,0,0.0,////,19.8,0.0,12.3,3.513
2013/05/01,15:00:01,342,346,351,4.2,4.5,4.7,19.6,51.9,1001.2,0.00,0,0.0,////,0.0,0,0.0,////,19.4,0.0,12.3,3.513
2013/05/01,15:10:01,346,349,355,2.9,3.1,3.3,19.5,51.9,1001.4,0.00,0,0.0,////,0.0,0,0.0,////,19.3,0.0,12.3,3.513
2013/05/01,15:20:01,338,351,002,5.2,5.4,5.6,19.4,52.6,1001.5,0.00,0,0.0,////,0.0,0,0.0,////,19.1,0.0,12.3,3.513
2013/05/01,15:30:01,329,334,342,5.6,6.2,6.6,19.3,52.4,1001.5,0.00,0,0.0,////,0.0,0,0.0,////,18.9,0.0,12.3,3.513
2013/05/01,15:40:01,341,346,350,3.5,4.0,4.4,19.5,52.9,1001.2,0.00,0,0.0,////,0.0,0,0.0,////,19.8,0.0,12.3,3.515
2013/05/01,15:50:01,357,002,010,4.4,4.7,4.9,19.5,51.3,1001.1,0.00,0,0.0,////,0.0,0,0.0,////,20.0,0.0,12.3,3.514
2013/05/01,16:00:01,347,359,013,3.2,4.0,5.0,19.6,51.2,1001.2,0.00,0,0.0,////,0.0,0,0.0,////,20.0,0.0,12.3,3.513
2013/05/01,16:10:01,338,344,356,3.2,4.2,5.2,19.4,52.4,1001.3,0.00,0,0.0,////,0.0,0,0.0,////,19.8,0.0,12.3,3.511
2013/05/01,16:20:01,333,343,348,4.4,5.9,7.0,19.3,53.4,1001.1,0.00,0,0.0,////,0.0,0,0.0,////,19.3,0.0,12.3,3.511
2013/05/01,16:30:01,355,359,002,4.1,4.4,4.7,19.2,55.9,1001.4,0.00,0,0.0,////,0.0,0,0.0,////,19.1,0.0,12.3,3.513
2013/05/01,16:40:01,007,010,013,5.1,5.5,6.0,19.1,58.2,1001.3,0.00,0,0.0,////,0.0,0,0.0,////,18.7,0.0,12.3,3.513
2013/05/01,16:50:01,341,347,353,3.6,4.0,4.2,19.0,61.1,1000.9,0.00,0,0.0,////,0.0,0,0.0,////,18.6,0.0,12.3,3.513
2013/05/01,17:00:01,342,350,000,2.6,3.0,3.4,18.8,60.1,1001.1,0.00,0,0.0,////,0.0,0,0.0,////,18.4,0.0,12.3,3.513
2013/05/01,17:10:01,348,355,000,5.4,5.8,6.2,18.9,60.6,1001.5,0.00,0,0.0,////,0.0,0,0.0,////,18.4,0.0,12.3,3.514
2013/05/01,17:20:01,355,000,003,3.9,4.1,4.3,18.9,62.9,1001.3,0.00,0,0.0,////,0.0,0,0.0,////,18.2,0.0,12.3,3.514
2013/05/01,17:30:01,353,000,010,2.1,2.5,2.9,18.8,62.4,1001.0,0.00,0,0.0,////,0.0,0,0.0,////,18.4,0.0,12.3,3.511
2013/05/01,17:40:01,344,004,019,3.9,4.4,5.2,18.8,61.5,1001.1,0.00,0,0.0,////,0.0,0,0.0,////,18.2,0.0,12.3,3.513
2013/05/01,17:50:01,347,351,353,5.5,5.9,6.3,18.7,62.8,1001.6,0.00,0,0.0,////,0.0,0,0.0,////,18.1,0.0,12.3,3.513
2013/05/01,18:00:01,338,347,359,5.3,5.4,5.5,18.8,63.7,1001.9,0.00,0,0.0,////,0.0,0,0.0,////,18.1,0.0,12.3,3.513
2013/05/01,18:10:01,339,347,352,5.4,6.0,6.3,18.7,62.8,1001.9,0.00,0,0.0,////,0.0,0,0.0,////,17.9,0.0,12.3,3.513
2013/05/01,18:20:01,348,356,003,2.8,3.1,3.5,18.7,63.0,1001.8,0.00,0,0.0,////,0.0,0,0.0,////,17.9,0.0,12.3,3.513
2013/05/01,18:30:01,000,007,020,6.0,6.3,6.6,18.7,64.1,1001.5,0.00,0,0.0,////,0.0,0,0.0,////,18.2,0.0,12.3,3.514
2013/05/01,18:40:01,312,335,350,2.3,3.4,4.6,18.8,61.3,1001.9,0.00,0,0.0,////,0.0,0,0.0,////,18.1,0.0,12.3,3.511
2013/05/01,18:50:01,315,322,329,2.8,3.3,4.1,18.7,61.4,1002.0,0.00,0,0.0,////,0.0,0,0.0,////,17.9,0.0,12.3,3.513
2013/05/01,19:00:01,343,345,349,3.3,3.6,3.9,18.6,62.4,1002.1,0.00,0,0.0,////,0.0,0,0.0,////,17.5,0.0,12.3,3.513
2013/05/01,19:10:01,338,343,348,4.5,4.6,4.7,18.4,62.2,1002.2,0.00,0,0.0,////,0.0,0,0.0,////,17.4,0.0,12.3,3.513
2013/05/01,19:20:01,341,351,357,4.2,4.3,4.3,18.5,63.9,1002.3,0.00,0,0.0,////,0.0,0,0.0,////,17.2,0.0,12.3,3.511
2013/05/01,19:30:01,342,347,353,4.0,4.2,4.4,18.5,63.9,1002.4,0.00,0,0.0,////,0.0,0,0.0,////,17.4,0.0,12.3,3.513
2013/05/01,19:40:01,330,335,338,4.2,4.3,4.4,18.6,63.6,1002.3,0.00,0,0.0,////,0.0,0,0.0,////,17.2,0.0,12.3,3.513
2013/05/01,19:50:01,009,013,019,2.6,3.0,3.4,18.5,64.5,1002.2,0.00,0,0.0,////,0.0,0,0.0,////,17.2,0.0,12.3,3.513
2013/05/01,20:00:01,341,342,344,2.2,2.4,2.7,18.5,63.5,1002.4,0.00,0,0.0,////,0.0,0,0.0,////,17.2,0.0,12.3,3.514
2013/05/01,20:10:01,347,355,000,2.3,2.6,2.8,18.5,64.0,1002.5,0.00,0,0.0,////,0.0,0,0.0,////,17.2,0.0,12.3,3.514
2013/05/01,20:20:01,347,350,356,3.3,3.5,3.8,18.5,63.2,1002.6,0.00,0,0.0,////,0.0,0,0.0,////,17.2,0.0,12.3,3.514
2013/05/01,20:30:01,337,354,007,2.1,2.3,2.6,18.5,63.8,1002.6,0.00,0,0.0,////,0.0,0,0.0,////,17.2,0.0,12.3,3.513
2013/05/01,20:40:01,335,345,355,2.4,2.6,2.7,18.4,61.1,1002.6,0.00,0,0.0,////,0.0,0,0.0,////,17.4,0.0,12.3,3.513
2013/05/01,20:50:01,007,010,014,2.6,2.7,2.9,18.4,58.7,1002.6,0.00,0,0.0,////,0.0,0,0.0,////,17.0,0.0,12.3,3.513
2013/05/01,21:00:01,354,356,358,2.5,2.7,2.9,18.3,61.0,1002.7,0.00,0,0.0,////,0.0,0,0.0,////,16.9,0.0,12.3,3.511
2013/05/01,21:10:01,348,349,351,3.9,4.0,4.1,18.2,64.5,1002.7,0.00,0,0.0,////,0.0,0,0.0,////,16.9,0.0,12.3,3.515
2013/05/01,21:20:01,353,001,014,3.5,3.7,4.0,18.2,62.1,1002.8,0.00,0,0.0,////,0.0,0,0.0,////,17.0,0.0,12.3,3.513
2013/05/01,21:30:01,003,009,012,4.1,4.2,4.4,18.1,62.3,1002.7,0.00,0,0.0,////,0.0,0,0.0,////,16.7,0.0,12.3,3.513
2013/05/01,21:40:01,357,006,011,4.0,4.5,5.1,18.3,62.2,1002.8,0.00,0,0.0,////,0.0,0,0.0,////,16.9,0.0,12.3,3.511
2013/05/01,21:50:01,004,009,014,3.4,3.8,4.2,18.2,62.1,1002.9,0.00,0,0.0,////,0.0,0,0.0,////,16.5,0.0,12.3,3.514
2013/05/01,22:00:01,354,004,017,2.9,3.5,4.2,18.2,62.8,1002.9,0.00,0,0.0,////,0.0,0,0.0,////,16.9,0.0,12.3,3.513
2013/05/01,22:10:01,002,009,017,4.0,4.3,4.6,18.1,61.8,1002.9,0.00,0,0.0,////,0.0,0,0.0,////,16.9,0.0,12.3,3.513
2013/05/01,22:20:01,011,016,023,2.1,2.6,3.0,18.1,62.6,1002.9,0.00,0,0.0,////,0.0,0,0.0,////,16.7,0.0,12.3,3.513
2013/05/01,22:30:01,350,359,008,3.8,4.1,4.5,18.1,62.8,1002.9,0.00,0,0.0,////,0.0,0,0.0,////,16.7,0.0,12.3,3.514
2013/05/01,22:40:01,008,009,010,2.5,3.5,4.1,18.2,63.5,1002.9,0.00,0,0.0,////,0.0,0,0.0,////,17.0,0.0,12.3,3.515
2013/05/01,22:50:01,002,009,019,3.8,4.1,4.4,18.1,61.1,1002.9,0.00,0,0.0,////,0.0,0,0.0,////,17.0,0.0,12.3,3.513
2013/05/01,23:00:01,007,011,016,2.8,3.3,3.7,18.0,60.1,1003.0,0.00,0,0.0,////,0.0,0,0.0,////,16.7,0.0,12.3,3.511
2013/05/01,23:10:01,348,354,358,4.1,4.3,4.6,18.0,60.9,1003.0,0.00,0,0.0,////,0.0,0,0.0,////,16.7,0.0,12.3,3.511
2013/05/01,23:20:01,359,002,006,2.0,2.2,2.5,18.1,61.0,1003.1,0.00,0,0.0,////,0.0,0,0.0,////,17.0,0.0,12.3,3.514
2013/05/01,23:30:01,329,343,351,2.8,3.2,3.7,18.2,61.2,1003.1,0.00,0,0.0,////,0.0,0,0.0,////,17.0,0.0,12.3,3.514
2013/05/01,23:40:01,316,326,346,3.4,3.8,4.2,18.3,61.8,1003.1,0.00,0,0.0,////,0.0,0,0.0,////,17.2,0.0,12.3,3.513
2013/05/01,23:50:01,348,351,353,3.7,4.0,4.2,18.4,62.2,1003.1,0.00,0,0.0,////,0.0,0,0.0,////,17.2,0.0,12.3,3.513
2013/05/02,00:00:01,328,340,350,2.5,3.1,3.5,18.3,62.8,1003.1,0.00,0,0.0,////,0.0,0,0.0,////,17.5,0.0,12.4,3.513
2013/05/02,00:10:01,343,346,349,2.7,3.2,3.6,18.3,63.4,1003.1,0.00,0,0.0,////,0.0,0,0.0,////,17.2,0.0,12.3,3.514
2013/05/02,00:20:01,002,008,014,2.5,2.9,3.1,18.3,63.0,1003.0,0.00,0,0.0,////,0.0,0,0.0,////,17.0,0.0,12.3,3.513
2013/05/02,00:30:01,334,355,019,1.1,1.4,1.7,18.3,60.5,1003.0,0.00,0,0.0,////,0.0,0,0.0,////,17.2,0.0,12.3,3.513
2013/05/02,00:40:01,353,002,013,2.9,3.6,3.9,18.3,60.5,1002.9,0.00,0,0.0,////,0.0,0,0.0,////,17.0,0.0,12.3,3.511
2013/05/02,00:50:01,007,009,011,5.8,6.0,6.3,18.2,59.0,1002.8,0.00,0,0.0,////,0.0,0,0.0,////,17.2,0.0,12.3,3.514
2013/05/02,01:00:01,006,009,010,5.4,5.7,5.9,18.2,58.0,1002.8,0.00,0,0.0,////,0.0,0,0.0,////,17.2,0.0,12.3,3.514
2013/05/02,01:10:01,356,005,012,2.6,3.0,3.3,18.2,59.0,1002.8,0.00,0,0.0,////,0.0,0,0.0,////,17.2,0.0,12.3,3.513
2013/05/02,01:20:01,016,030,039,2.4,2.6,2.9,18.2,58.7,1002.7,0.00,0,0.0,////,0.0,0,0.0,////,17.2,0.0,12.3,3.513
2013/05/02,01:30:01,328,340,349,2.2,2.5,3.1,18.3,59.5,1002.6,0.00,0,0.0,////,0.0,0,0.0,////,17.2,0.0,12.3,3.513
2013/05/02,01:40:01,346,357,002,2.2,2.3,2.4,18.2,59.0,1002.6,0.00,0,0.0,////,0.0,0,0.0,////,17.2,0.0,12.3,3.513
2013/05/02,01:50:01,314,315,317,2.9,3.1,3.4,18.4,64.7,1002.5,0.00,0,0.0,////,0.0,0,0.0,////,17.2,0.0,12.3,3.514
2013/05/02,02:00:01,335,339,341,2.3,2.7,3.0,18.4,65.9,1002.5,0.00,0,0.0,////,0.0,0,0.0,////,17.2,0.0,12.3,3.514
2013/05/02,02:10:01,340,356,014,2.2,2.3,2.4,18.4,64.6,1002.5,0.00,0,0.0,////,0.0,0,0.0,////,17.2,0.0,12.3,3.513
2013/05/02,02:20:01,326,333,339,3.3,3.7,4.0,18.5,65.1,1002.5,0.00,0,0.0,////,0.0,0,0.0,////,17.4,0.0,12.3,3.513
2013/05/02,02:30:01,281,290,297,4.2,4.6,4.8,18.3,64.9,1002.5,0.00,0,0.0,////,0.0,0,0.0,////,17.2,0.0,12.3,3.514
2013/05/02,02:40:01,329,339,345,3.2,3.3,3.5,18.4,63.5,1002.5,0.00,0,0.0,////,0.0,0,0.0,////,17.2,0.0,12.3,3.513
2013/05/02,02:50:01,308,323,332,3.2,3.6,3.9,18.4,62.3,1002.5,0.00,0,0.0,////,0.0,0,0.0,////,17.4,0.0,12.3,3.513
2013/05/02,03:00:01,330,343,357,2.2,2.7,3.0,18.5,61.4,1002.5,0.00,0,0.0,////,0.0,0,0.0,////,17.4,0.0,12.3,3.514
2013/05/02,03:10:01,303,324,343,4.3,4.7,5.6,18.4,59.8,1002.5,0.00,0,0.0,////,0.0,0,0.0,////,17.4,0.0,12.3,3.513
2013/05/02,03:20:01,343,354,008,3.0,3.6,4.4,18.4,60.6,1002.5,0.00,0,0.0,////,0.0,0,0.0,////,17.2,0.0,12.3,3.511
2013/05/02,03:30:01,349,002,010,1.9,2.7,3.1,18.4,59.8,1002.5,0.00,0,0.0,////,0.0,0,0.0,////,17.0,0.0,12.3,3.513
2013/05/02,03:40:01,314,337,001,1.7,2.1,2.8,18.4,60.2,1002.4,0.00,0,0.0,////,0.0,0,0.0,////,17.2,0.0,12.3,3.513
2013/05/02,03:50:01,351,359,007,2.8,3.0,3.3,18.3,60.7,1002.4,0.00,0,0.0,////,0.0,0,0.0,////,17.2,0.0,12.3,3.516
2013/05/02,04:00:01,002,007,014,2.5,2.6,2.8,18.4,58.7,1002.5,0.00,0,0.0,////,0.0,0,0.0,////,17.5,0.0,12.3,3.513
2013/05/02,04:10:01,349,353,357,3.0,3.2,3.3,18.3,58.6,1002.5,0.00,0,0.0,////,0.0,0,0.0,////,17.2,0.0,12.3,3.513
2013/05/02,04:20:01,332,336,342,2.7,2.9,3.2,18.2,58.9,1002.4,0.00,0,0.0,////,0.0,0,0.0,////,16.9,0.0,12.3,3.514
2013/05/02,04:30:01,355,005,014,3.2,3.3,3.4,18.2,61.6,1002.3,0.00,0,0.0,////,0.0,0,0.0,////,16.5,0.0,12.3,3.513
2013/05/02,04:40:01,008,014,018,3.6,4.1,4.6,18.1,61.5,1002.2,0.00,0,0.0,////,0.0,0,0.0,////,16.7,0.0,12.3,3.511
2013/05/02,04:50:01,346,349,353,2.1,2.4,2.7,18.1,60.5,1002.4,0.00,0,0.0,////,0.0,0,0.0,////,16.5,0.0,12.3,3.515
2013/05/02,05:00:01,319,336,346,2.4,2.8,3.2,18.2,60.6,1002.6,0.00,0,0.0,////,0.0,0,0.0,////,16.5,0.0,12.3,3.514
2013/05/02,05:10:01,343,347,355,3.6,4.0,4.4,18.1,62.1,1002.6,0.00,0,0.0,////,0.0,0,0.0,////,16.5,0.0,12.2,3.513
2013/05/02,05:20:01,342,358,016,1.5,1.8,2.2,18.1,60.5,1002.7,0.00,0,0.0,////,0.0,0,0.0,////,16.7,0.0,12.3,3.513
2013/05/02,05:30:01,352,007,015,2.8,3.4,3.8,18.1,61.1,1002.8,0.00,0,0.0,////,0.0,0,0.0,////,16.7,0.0,12.3,3.513
2013/05/02,05:40:01,344,344,344,1.9,2.4,2.7,18.0,63.4,1003.0,0.00,0,0.0,////,0.0,0,0.0,////,16.7,0.0,12.3,3.513
2013/05/02,05:50:01,343,353,004,1.1,1.3,1.4,18.2,63.2,1003.2,0.00,0,0.0,////,0.0,0,0.0,////,16.7,0.0,12.3,3.513
2013/05/02,06:00:01,318,344,000,1.2,1.8,2.3,18.2,62.8,1003.4,0.00,0,0.0,////,0.0,0,0.0,////,16.9,0.0,12.3,3.515
2013/05/02,06:10:01,358,005,017,2.1,2.2,2.4,18.2,63.5,1003.5,0.00,0,0.0,////,0.0,0,0.0,////,17.0,0.0,12.3,3.513
2013/05/02,06:20:01,342,348,356,1.8,2.0,2.1,18.3,64.4,1003.6,0.00,0,0.0,////,0.0,0,0.0,////,17.0,0.0,12.3,3.513
2013/05/02,06:30:01,321,323,325,1.6,1.9,2.1,18.4,63.6,1003.7,0.00,0,0.0,////,0.0,0,0.0,////,17.4,0.0,12.3,3.513
2013/05/02,06:40:01,319,324,330,2.2,2.5,3.1,18.6,64.6,1003.8,0.00,0,0.0,////,0.0,0,0.0,////,17.7,0.0,12.3,3.514
2013/05/02,06:50:01,324,330,333,2.2,2.7,3.1,18.8,63.9,1003.7,0.00,0,0.0,////,0.0,0,0.0,////,18.6,0.0,12.3,3.513
2013/05/02,07:00:01,333,341,357,1.8,2.0,2.3,19.0,62.9,1003.7,0.00,0,0.0,////,0.0,0,0.0,////,19.1,0.0,12.3,3.511
2013/05/02,07:10:01,001,006,010,2.0,2.2,2.4,19.2,62.6,1003.7,0.00,0,0.0,////,0.0,0,0.0,////,19.6,0.0,12.4,3.511
2013/05/02,07:20:01,352,008,019,2.4,2.9,3.4,19.4,60.3,1003.8,0.00,0,0.0,////,0.0,0,0.0,////,20.0,0.0,12.3,3.513
2013/05/02,07:30:01,345,354,005,1.4,1.5,1.6,19.5,57.8,1004.0,0.00,0,0.0,////,0.0,0,0.0,////,20.1,0.0,12.3,3.513
2013/05/02,07:40:01,342,348,351,2.3,2.5,2.9,19.7,59.2,1004.0,0.00,0,0.0,////,0.0,0,0.0,////,20.8,0.0,12.3,3.513
2013/05/02,07:50:01,349,356,008,3.2,3.4,3.5,20.1,60.5,1004.0,0.00,0,0.0,////,0.0,0,0.0,////,21.7,0.0,12.3,3.513
2013/05/02,08:00:01,002,007,014,2.8,2.9,3.0,20.1,61.3,1004.1,0.00,0,0.0,////,0.0,0,0.0,////,21.7,0.0,12.3,3.514
2013/05/02,08:10:01,358,004,014,1.7,1.8,2.0,20.0,60.0,1004.3,0.00,0,0.0,////,0.0,0,0.0,////,21.7,0.0,12.3,3.513
2013/05/02,08:20:01,320,342,003,0.8,1.0,1.2,19.7,61.8,1004.3,0.00,0,0.0,////,0.0,0,0.0,////,20.5,0.0,12.3,3.514
2013/05/02,08:30:01,334,348,000,2.1,2.2,2.3,20.0,62.4,1004.1,0.00,0,0.0,////,0.0,0,0.0,////,21.2,0.0,12.3,3.513
2013/05/02,08:40:01,343,347,350,2.9,3.1,3.4,20.2,60.7,1004.3,0.00,0,0.0,////,0.0,0,0.0,////,21.8,0.0,12.4,3.511
2013/05/02,08:50:01,347,357,008,2.8,3.2,3.5,20.2,60.7,1004.3,0.00,0,0.0,////,0.0,0,0.0,////,21.8,0.0,12.3,3.511
2013/05/02,09:00:01,298,308,314,0.5,0.7,0.8,20.5,61.1,1004.4,0.00,0,0.0,////,0.0,0,0.0,////,22.5,0.0,12.3,3.513
2013/05/02,09:10:01,340,345,348,3.5,3.7,4.2,20.8,60.1,1004.4,0.00,0,0.0,////,0.0,0,0.0,////,23.7,0.0,12.3,3.513
2013/05/02,09:20:01,308,321,338,1.3,1.6,1.9,20.4,59.8,1004.4,0.00,0,0.0,////,0.0,0,0.0,////,22.5,0.0,12.3,3.513
2013/05/02,09:30:01,011,012,015,1.8,2.2,2.6,21.0,58.8,1004.4,0.00,0,0.0,////,0.0,0,0.0,////,23.7,0.0,12.3,3.511
2013/05/02,09:40:01,338,340,342,1.5,1.7,1.9,21.2,58.2,1004.4,0.00,0,0.0,////,0.0,0,0.0,////,24.4,0.0,12.3,3.513
2013/05/02,09:50:01,285,302,322,1.8,2.1,2.5,21.2,58.7,1004.3,0.00,0,0.0,////,0.0,0,0.0,////,25.0,0.0,12.3,3.511
2013/05/02,10:00:01,335,346,002,1.8,2.1,2.4,21.2,58.7,1004.4,0.00,0,0.0,////,0.0,0,0.0,////,25.0,0.0,12.3,3.511
2013/05/02,10:10:01,342,344,345,1.9,2.3,2.5,21.1,61.0,1004.5,0.00,0,0.0,////,0.0,0,0.0,////,24.1,0.0,12.3,3.511
2013/05/02,10:20:01,327,339,350,1.2,1.5,1.8,21.1,58.3,1004.7,0.00,0,0.0,////,0.0,0,0.0,////,24.1,0.0,12.3,3.513
2013/05/02,10:30:01,339,341,344,2.6,3.3,4.0,20.3,61.6,1004.7,0.00,0,0.0,////,0.0,0,0.0,////,22.0,0.0,12.3,3.513
2013/05/02,10:40:01,347,353,002,3.2,3.4,3.5,20.0,66.6,1004.6,0.00,0,0.0,////,0.0,0,0.0,////,20.3,0.0,12.2,3.511
2013/05/02,10:50:01,011,027,040,6.3,6.8,7.3,20.0,67.1,1004.5,0.00,0,0.0,////,0.0,0,0.0,////,20.3,0.0,12.3,3.513
2013/05/02,11:00:01,035,045,064,2.2,2.6,3.1,20.2,67.4,1004.5,0.00,0,0.0,////,0.0,0,0.0,////,20.5,0.0,12.3,3.511
2013/05/02,11:10:01,044,051,055,4.3,4.9,6.0,20.7,65.5,1004.4,0.00,0,0.0,////,0.0,0,0.0,////,22.0,0.0,12.3,3.511
2013/05/02,11:20:01,352,013,028,2.5,4.1,5.2,20.9,63.8,1004.4,0.00,0,0.0,////,0.0,0,0.0,////,22.2,0.0,12.3,3.511
2013/05/02,11:30:01,032,043,061,3.7,4.4,5.1,20.5,63.3,1004.5,0.00,0,0.0,////,0.0,0,0.0,////,21.7,0.0,12.4,3.514
2013/05/02,11:40:01,010,029,039,1.9,2.6,3.4,20.5,61.9,1004.3,0.00,0,0.0,////,0.0,0,0.0,////,21.3,0.0,12.3,3.514
2013/05/02,11:50:01,013,018,023,5.8,6.6,7.2,20.5,61.8,1004.4,0.00,0,0.0,////,0.0,0,0.0,////,21.2,0.0,12.2,3.513
2013/05/02,12:00:01,028,036,050,4.4,5.0,5.7,20.6,61.1,1004.4,0.00,0,0.0,////,0.0,0,0.0,////,21.5,0.0,12.3,3.511
2013/05/02,12:10:01,014,022,027,2.4,3.0,3.3,20.5,60.6,1004.3,0.00,0,0.0,////,0.0,0,0.0,////,21.3,0.0,12.3,3.513
2013/05/02,12:20:01,017,029,043,3.7,3.8,4.0,20.6,60.4,1004.3,0.00,0,0.0,////,0.0,0,0.0,////,21.8,0.0,12.3,3.511
2013/05/02,12:30:01,015,016,019,6.5,7.4,8.1,20.5,61.0,1004.2,0.00,0,0.0,////,0.0,0,0.0,////,21.3,0.0,12.3,3.513
2013/05/02,12:40:01,016,021,029,4.8,5.0,5.2,20.4,61.3,1004.2,0.00,0,0.0,////,0.0,0,0.0,////,21.2,0.0,12.3,3.514
2013/05/02,12:50:01,008,018,026,4.6,5.4,6.2,20.8,59.7,1004.2,0.00,0,0.0,////,0.0,0,0.0,////,21.8,0.0,12.3,3.513
2013/05/02,13:00:01,013,015,018,4.1,4.4,4.9,20.3,61.5,1004.3,0.00,0,0.0,////,0.0,0,0.0,////,21.3,0.0,12.3,3.514
2013/05/02,13:10:01,356,358,000,5.6,6.0,6.2,20.5,60.9,1004.2,0.00,0,0.0,////,0.0,0,0.0,////,21.3,0.0,12.3,3.511
2013/05/02,13:20:01,006,008,012,5.1,5.4,5.7,21.0,59.7,1004.4,0.00,0,0.0,////,0.0,0,0.0,////,22.5,0.0,12.3,3.513
2013/05/02,13:30:01,359,004,008,4.2,4.5,5.0,20.9,58.4,1004.4,0.00,0,0.0,////,0.0,0,0.0,////,22.7,0.0,12.3,3.513
2013/05/02,13:40:01,002,008,012,3.4,3.8,4.3,21.0,57.5,1004.5,0.00,0,0.0,////,0.0,0,0.0,////,22.7,0.0,12.3,3.513
2013/05/02,13:50:01,002,006,012,3.2,3.3,3.4,21.0,56.3,1004.5,0.00,0,0.0,////,0.0,0,0.0,////,23.2,0.0,12.3,3.510
2013/05/02,14:00:01,000,005,010,3.4,4.3,5.1,20.8,56.4,1004.4,0.00,0,0.0,////,0.0,0,0.0,////,22.4,0.0,12.3,3.513
2013/05/02,14:10:01,322,344,006,1.6,2.0,2.5,20.6,57.1,1004.3,0.00,0,0.0,////,0.0,0,0.0,////,21.8,0.0,12.3,3.513
2013/05/02,14:20:01,349,005,015,2.1,2.9,3.6,21.0,53.9,1004.3,0.00,0,0.0,////,0.0,0,0.0,////,22.5,0.0,12.3,3.513
2013/05/02,14:30:01,010,014,017,3.0,3.3,3.8,21.0,54.1,1004.3,0.00,0,0.0,////,0.0,0,0.0,////,22.9,0.0,12.3,3.513
2013/05/02,14:40:01,008,010,011,3.3,3.6,4.2,21.2,55.9,1004.2,0.00,0,0.0,////,0.0,0,0.0,////,23.6,0.0,12.3,3.511
2013/05/02,14:50:01,009,019,030,3.4,3.6,3.9,20.9,54.6,1004.3,0.00,0,0.0,////,0.0,0,0.0,////,22.7,0.0,12.3,3.513
2013/05/02,15:00:01,349,359,004,2.4,2.6,2.8,20.8,55.1,1004.3,0.00,0,0.0,////,0.0,0,0.0,////,22.5,0.0,12.3,3.513
2013/05/02,15:10:01,006,012,020,2.5,3.2,4.0,21.2,56.7,1004.4,0.00,0,0.0,////,0.0,0,0.0,////,23.2,0.0,12.3,3.511
2013/05/02,15:20:01,358,000,001,3.4,3.8,4.2,21.0,56.3,1004.3,0.00,0,0.0,////,0.0,0,0.0,////,22.7,0.0,12.3,3.511
2013/05/02,15:30:01,355,357,001,2.9,3.1,3.3,20.8,56.1,1004.2,0.00,0,0.0,////,0.0,0,0.0,////,22.2,0.0,12.3,3.513
2013/05/02,15:40:01,004,009,012,4.0,4.3,4.6,21.1,56.7,1004.1,0.00,0,0.0,////,0.0,0,0.0,////,22.7,0.0,12.3,3.511
2013/05/02,15:50:01,009,010,011,2.7,3.0,3.5,20.9,56.4,1004.2,0.00,0,0.0,////,0.0,0,0.0,////,22.5,0.0,12.3,3.513
2013/05/02,16:00:01,005,008,010,3.0,3.5,4.2,21.2,58.5,1004.3,0.00,0,0.0,////,0.0,0,0.0,////,23.2,0.0,12.3,3.513
2013/05/02,16:10:01,010,019,032,2.6,3.0,3.6,20.6,57.2,1004.3,0.00,0,0.0,////,0.0,0,0.0,////,21.7,0.0,12.3,3.513
2013/05/02,16:20:01,007,015,027,3.0,3.3,3.5,20.5,56.7,1004.4,0.00,0,0.0,////,0.0,0,0.0,////,21.3,0.0,12.3,3.514
2013/05/02,16:30:01,026,027,028,5.0,5.3,5.6,20.5,58.2,1004.2,0.00,0,0.0,////,0.0,0,0.0,////,21.2,0.0,12.3,3.511
2013/05/02,16:40:01,034,040,046,3.6,4.4,5.3,20.7,59.2,1004.1,0.00,0,0.0,////,0.0,0,0.0,////,21.7,0.0,12.3,3.513
2013/05/02,16:50:01,026,032,038,3.7,3.9,4.2,20.4,59.7,1003.9,0.00,0,0.0,////,0.0,0,0.0,////,21.3,0.0,12.2,3.513
2013/05/02,17:00:01,017,021,024,4.6,5.4,5.9,20.2,60.6,1003.9,0.00,0,0.0,////,0.0,0,0.0,////,20.6,0.0,12.3,3.513
2013/05/02,17:10:01,021,026,031,5.7,6.0,6.4,20.5,58.2,1004.1,0.00,0,0.0,////,0.0,0,0.0,////,21.7,0.0,12.4,3.513
2013/05/02,17:20:01,015,024,034,2.7,3.0,3.5,20.3,57.3,1004.1,0.00,0,0.0,////,0.0,0,0.0,////,21.3,0.0,12.3,3.514
2013/05/02,17:30:01,015,019,022,2.9,3.2,3.4,20.1,58.5,1004.3,0.00,0,0.0,////,0.0,0,0.0,////,20.8,0.0,12.3,3.511
2013/05/02,17:40:01,029,061,084,2.6,3.6,4.4,20.0,59.3,1004.3,0.00,0,0.0,////,0.0,0,0.0,////,20.3,0.0,12.3,3.513
2013/05/02,17:50:01,008,019,031,2.6,3.1,3.4,19.9,58.4,1004.3,0.00,0,0.0,////,0.0,0,0.0,////,20.1,0.0,12.3,3.513
2013/05/02,18:00:01,024,029,033,3.1,3.8,4.5,19.7,57.9,1004.5,0.00,0,0.0,////,0.0,0,0.0,////,19.8,0.0,12.3,3.513
2013/05/02,18:10:01,349,001,012,2.9,3.1,3.2,19.6,58.1,1004.7,0.00,0,0.0,////,0.0,0,0.0,////,19.1,0.0,12.3,3.513
2013/05/02,18:20:01,019,022,028,4.5,4.8,5.2,19.5,58.6,1004.8,0.00,0,0.0,////,0.0,0,0.0,////,18.9,0.0,12.2,3.513
2013/05/02,18:30:01,001,007,014,3.3,3.6,4.0,19.4,59.2,1004.8,0.00,0,0.0,////,0.0,0,0.0,////,18.7,0.0,12.3,3.514
2013/05/02,18:40:01,013,015,019,4.0,4.1,4.2,19.4,58.4,1005.0,0.00,0,0.0,////,0.0,0,0.0,////,18.2,0.0,12.3,3.513
2013/05/02,18:50:01,342,353,359,1.7,1.9,2.2,19.3,58.9,1005.1,0.00,0,0.0,////,0.0,0,0.0,////,18.4,0.0,12.3,3.513
2013/05/02,19:00:01,001,011,019,2.0,2.7,3.6,19.2,58.5,1005.1,0.00,0,0.0,////,0.0,0,0.0,////,18.2,0.0,12.3,3.513
2013/05/02,19:10:01,022,033,045,3.1,3.7,4.2,19.2,59.5,1005.0,0.00,0,0.0,////,0.0,0,0.0,////,18.1,0.0,12.2,3.513
2013/05/02,19:20:01,022,025,028,4.6,4.9,5.5,19.2,58.8,1005.1,0.00,0,0.0,////,0.0,0,0.0,////,18.1,0.0,12.3,3.513
2013/05/02,19:30:01,019,037,047,1.4,1.6,1.9,19.3,60.6,1005.3,0.00,0,0.0,////,0.0,0,0.0,////,17.9,0.0,12.3,3.513
2013/05/02,19:40:01,031,034,038,2.4,2.7,3.2,19.2,58.0,1005.4,0.00,0,0.0,////,0.0,0,0.0,////,18.2,0.0,12.3,3.513
2013/05/02,19:50:01,358,005,013,4.1,4.4,4.8,19.2,59.7,1005.5,0.00,0,0.0,////,0.0,0,0.0,////,18.4,0.0,12.3,3.513
2013/05/02,20:00:01,020,024,029,4.4,4.6,4.9,19.1,59.7,1005.5,0.00,0,0.0,////,0.0,0,0.0,////,18.1,0.0,12.3,3.513